This is the latest recevied weather packets stored in our database for station/object EA3GKP-10. If no packets are shown the sender has not sent any weather packets the latest 10 day(s).
| Time | Temp. | Humidity | Pressure | Rain* | Wind** | Luminosity | Snow |
|---|---|---|---|---|---|---|---|
| 1777576260 | 19.44° C | - | - | 0 mm | 0 m/s | - | - |
| 1777575652 | 19.44° C | - | - | 0 mm | 0.45 m/s, 153° | - | - |
| 1777575343 | 19.44° C | - | - | 0 mm | 1.34 m/s, 138° | - | - |
| 1777575041 | 20° C | - | - | 0 mm | 0.89 m/s, 146° | - | - |
| 1777574433 | 20.56° C | - | - | 0 mm | 0.45 m/s, 211° | - | - |
| 1777574130 | 20° C | - | - | 0 mm | 0.45 m/s, 145° | - | - |
| 1777573827 | 20° C | - | - | 0 mm | 0.89 m/s, 219° | - | - |
| 1777573524 | 20.56° C | - | - | 0 mm | 0.45 m/s, 231° | - | - |
| 1777573222 | 20° C | - | - | 0 mm | 1.79 m/s, 236° | - | - |
| 1777572918 | 21.11° C | - | - | 0 mm | 0.89 m/s, 211° | - | - |
| 1777572615 | 20.56° C | - | - | 0 mm | 0.45 m/s, 233° | - | - |
| 1777572313 | 20.56° C | - | - | 0 mm | 1.79 m/s, 169° | - | - |
| 1777572010 | 20.56° C | - | - | 0 mm | 1.79 m/s, 295° | - | - |
| 1777571707 | 21.11° C | - | - | 0 mm | 1.34 m/s, 162° | - | - |
| 1777571100 | 20.56° C | - | - | 0 mm | 1.34 m/s, 239° | - | - |
| 1777570794 | 21.11° C | - | - | 0 mm | 1.34 m/s, 170° | - | - |
| 1777570491 | 22.22° C | - | - | 0 mm | 1.34 m/s, 200° | - | - |
| 1777569884 | 21.67° C | - | - | 0 mm | 1.34 m/s, 177° | - | - |
| 1777569581 | 21.11° C | - | - | 0 mm | 2.24 m/s, 160° | - | - |
| 1777569278 | 21.67° C | - | - | 0 mm | 2.24 m/s, 240° | - | - |
| 1777568975 | 21.67° C | - | - | 0 mm | 1.34 m/s, 195° | - | - |
| 1777568672 | 22.22° C | - | - | 0 mm | 1.79 m/s, 183° | - | - |
| 1777568367 | 22.22° C | - | - | 0 mm | 1.79 m/s, 224° | - | - |
| 1777568064 | 22.78° C | - | - | 0 mm | 1.34 m/s, 187° | - | - |
| 1777567761 | 22.22° C | - | - | 0 mm | 1.79 m/s, 225° | - | - |
* Rain latest hour (hover to see other rain measurements)
** Current wind speed in m/s (hover to see current wind gust speed)